This is the latest recevied weather packets stored in our database for station/object OE-11369. If no packets are shown the sender has not sent any weather packets the latest 10 day(s).
| Time | Temp. | Humidity | Pressure | Rain* | Wind** | Luminosity | Snow |
|---|---|---|---|---|---|---|---|
| 1787596501 | 20° C | 67% | 1013.6 hPa | - | - | - | - |
| 1787595902 | 20° C | 65% | 1013.4 hPa | - | - | - | - |
| 1787595075 | 20.56° C | 65% | 1013.4 hPa | - | - | - | - |
| 1787594702 | 20.56° C | 62% | 1013.3 hPa | - | - | - | - |
| 1787594102 | 21.11° C | 63% | 1013.4 hPa | - | - | - | - |
| 1787593275 | 21.11° C | 60% | 1013.3 hPa | - | - | - | - |
| 1787592901 | 21.67° C | 59% | 1013.3 hPa | - | - | - | - |
| 1787592302 | 22.22° C | 58% | 1013.2 hPa | - | - | - | - |
| 1787591475 | 22.22° C | 56% | 1013.3 hPa | - | - | - | - |
| 1787591102 | 22.78° C | 56% | 1013.4 hPa | - | - | - | - |
| 1787590502 | 22.78° C | 56% | 1013.4 hPa | - | - | - | - |
| 1787589676 | 22.78° C | 55% | 1013.5 hPa | - | - | - | - |
| 1787589302 | 23.33° C | 55% | 1013.6 hPa | - | - | - | - |
| 1787588701 | 23.33° C | 54% | 1013.6 hPa | - | - | - | - |
| 1787587877 | 23.33° C | 54% | 1013.6 hPa | - | - | - | - |
| 1787587502 | 23.89° C | 53% | 1013.7 hPa | - | - | - | - |
| 1787586902 | 23.89° C | 51% | 1013.8 hPa | - | - | - | - |
| 1787586077 | 24.44° C | 51% | 1013.9 hPa | - | - | - | - |
| 1787585102 | 24.44° C | 50% | 1014 hPa | - | - | - | - |
| 1787584277 | 24.44° C | 49% | 1014 hPa | - | - | - | - |
| 1787583901 | 25.56° C | 47% | 1013.8 hPa | - | - | - | - |
| 1787583302 | 25.56° C | 47% | 1014.1 hPa | - | - | - | - |
| 1787582477 | 25.56° C | 48% | 1013.9 hPa | - | - | - | - |
| 1787582101 | 25° C | 48% | 1014.2 hPa | - | - | - | - |
| 1787581501 | 25° C | 48% | 1013.9 hPa | - | - | - | - |
* Rain since midnight (hover to see other rain measurements)
** Current wind speed in m/s (hover to see current wind gust speed)